Regional Weather Roundup
Issued by NWS

Home | Current Version | Previous Version | Graphics & Text | Print | Product List | Glossary On
Versions: 1 2 3 4 5 6 7 8 9 10 11 12 13 14 15 16 17 18 19 20 21 22 23 24 25 26 27 28 29 30 31 32 33 34 35 36 37 38 39 40 41 42 43 44 45 46 47 48 49 50
000
ASUS44 KMEG 281410
RWRTN
TENNESSEE HOURLY STATE WEATHER ROUNDUP
NATIONAL WEATHER SERVICE MEMPHIS TN
800 AM CST WED JAN 28 2015

TNZ002-004-019-021-049-052-054-088>092-281500-
WEST TENNESSEE

CITY           SKY/WX    TMP DP  RH WIND       PRES   REMARKS
MEMPHIS INTL   PTCLDY    36  28  73 SE7       30.28F WCI  30
NWS MEMPHIS      N/A     33 N/A N/A MISG        N/A
JACKSON        SUNNY     32  26  78 CALM      30.31R
DYERSBURG      CLEAR     30  18  59 E6        30.32S WCI  24
UNION CITY     CLEAR     25  25 100 CALM      30.29F
PARIS          SUNNY     28  27  93 E12       30.29S WCI  18
LEXINGTON      SUNNY     28  25  86 E7        30.28F WCI  21
SAVANNAH         N/A     28  27  93 E3        30.30F
$$

TNZ008-025-027-028-033-062-065-066-281500-
NORTH MIDDLE TENNESSEE

CITY           SKY/WX    TMP DP  RH WIND       PRES   REMARKS
NASHVILLE      MOSUNNY   32  19  58 E9        30.34R WCI  24
CLARKSVILLE    CLOUDY    32  26  78 SE9       30.34R WCI  24
SMYRNA         SUNNY     32  23  69 NE3       30.35S
COOKEVILLE     SUNNY     27  21  80 CALM      30.32R
CROSSVILLE     SUNNY     25  15  66 NE7       30.28R WCI  17
$$

TNZ061-075-076-078-094-096-097-281500-
SOUTH MIDDLE TENNESSEE

CITY           SKY/WX    TMP DP  RH WIND       PRES   REMARKS
FAYETTEVILLE   SUNNY     30  23  74 MISG      30.29S
TULLAHOMA      SUNNY     30  23  74 E8        30.29F WCI  23
WINCHESTER     SUNNY     32  25  74 NE6       30.31S WCI  26
MCMINNVILLE    SUNNY     30  21  69 NE7       30.31S WCI  23
COLUMBIA       SUNNY     30  30 100 E5        30.29R WCI  25
SHELBYVILLE    SUNNY     34  27  75 E3        30.32R
$$

TNZ017-018-042-046-047-281500-
NORTHEAST TENNESSEE

CITY           SKY/WX    TMP DP  RH WIND       PRES   REMARKS
TRI CITIES     SUNNY     23  14  68 CALM      30.31R
ELIZABETHTON   SUNNY     18  12  79 CALM      30.30R
$$

TNZ012-013-036-069-073-074-281500-
CENTRAL EAST TENNESSEE

CITY           SKY/WX    TMP DP  RH WIND       PRES   REMARKS
KNOXVILLE      SUNNY     28  16  60 NE9       30.32  WCI  19
OAK RIDGE      SUNNY     29  15  56 VRB5      30.35R WCI  24
GATLINBURG     SUNNY     21  19  93 CALM      30.33R
MORRISTOWN     SUNNY     25  16  68 E3        30.31R
$$

TNZ083-085-099-281500-
SOUTHEAST TENNESSEE

CITY           SKY/WX    TMP DP  RH WIND       PRES   REMARKS
CHATTANOOGA    MOSUNNY   33  22  63 N8        30.33R WCI  26
$$

SKY/WX REPORTED AS FAIR MEANS FEW OR NO CLOUDS BELOW
12 THOUSAND FEET.




USA.gov is the U.S. government's official web portal to all federal, state and local government web resources and services.